Pinedale, WY

5:06 AM MDT on March 28, 2017 (GMT -0600)
Wenz

Weather History for KPNA - April, 2013

Change the Weather History Date:

Thursday, April 25, 2013

  Actual Average (KBPI) Record (KBPI)
Temperature  
Mean Temperature 34 °F -  
Max Temperature 51 °F 51 °F 71 °F (2012)
Min Temperature 17 °F 23 °F 14 °F (2000)
Degree Days  
Heating Degree Days 31    
Moisture  
Dew Point 14 °F    
Average Humidity 52    
Maximum Humidity 93    
Minimum Humidity 18    
Precipitation  
Precipitation 0.00 in - - ()
Sea Level Pressure  
Sea Level Pressure 30.08 in    
Wind  
Wind Speed 6 mph (WNW)    
Max Wind Speed 21 mph    
Max Gust Speed 28 mph    
Visibility 10 miles    
Events      
Averages and records for this station are not official NWS values.
T = Trace of Precipitation, MM = Missing Value Source: NWS Daily Summary

Daily Weather History Graph

Daily Weather History Graph

Search for Another Location

Airport or City:

Trip Planner

Search our weather history database for the weather conditions in past years. The results will help you decide how hot, cold, wet, or windy it might be!

Date:

Astronomy

Apr. 25, 2013 Rise Set
Actual Time 6:21 AM MDT 8:13 PM MDT
Civil Twilight 5:51 AM MDT 8:43 PM MDT
Nautical Twilight 5:14 AM MDT 9:20 PM MDT
Astronomical Twilight 4:34 AM MDT 10:01 PM MDT
Moon 8:31 PM MDT (4/25) 6:07 AM MDT (4/25)
Length of Visible Light 14h 52m
Length of Day
13h 51m
Full, 100% of the Moon is Illuminated
Apr 25
Full
Apr 25
Full
May 2
Last Quarter
May 9
New
May 17
First Quarter

Hourly Weather History & Observations

Time (MDT) Temp. Windchill Dew Point Humidity Pressure Visibility Wind Dir Wind Speed Gust Speed Precip Events Conditions
12:15 AM 26.6 °F 22.6 °F 19.4 °F 74% 30.16 in 10.0 mi WNW 3.5 mph - N/A   Scattered Clouds
12:35 AM 24.8 °F 17.9 °F 19.4 °F 80% 30.16 in 10.0 mi NW 5.8 mph - N/A   Scattered Clouds
12:55 AM 23.0 °F 14.7 °F 17.6 °F 80% 30.16 in 10.0 mi NNW 6.9 mph - N/A   Clear
1:15 AM 21.2 °F 13.6 °F 19.4 °F 93% 30.16 in 10.0 mi NW 5.8 mph - N/A   Clear
1:35 AM 21.2 °F 13.6 °F 19.4 °F 93% 30.16 in 10.0 mi WNW 5.8 mph - N/A   Mostly Cloudy
1:55 AM 21.2 °F 13.6 °F 17.6 °F 86% 30.15 in 10.0 mi NW 5.8 mph - N/A   Mostly Cloudy
2:15 AM 21.2 °F 10.9 °F 17.6 °F 86% 30.15 in 10.0 mi NNW 9.2 mph - N/A   Scattered Clouds
2:35 AM 21.2 °F 16.4 °F 17.6 °F 86% 30.14 in 10.0 mi WNW 3.5 mph - N/A   Scattered Clouds
2:55 AM 19.4 °F 14.3 °F 17.6 °F 93% 30.13 in 10.0 mi WNW 3.5 mph - N/A   Scattered Clouds
3:15 AM 19.4 °F 14.3 °F 17.6 °F 93% 30.13 in 10.0 mi NW 3.5 mph - N/A   Clear
3:35 AM 19.4 °F 12.8 °F 17.6 °F 93% 30.12 in 10.0 mi NNW 4.6 mph - N/A   Scattered Clouds
3:55 AM 19.4 °F 11.5 °F 14.0 °F 80% 30.12 in 10.0 mi WNW 5.8 mph - N/A   Scattered Clouds
4:15 AM 17.6 °F 9.3 °F 15.8 °F 93% 30.12 in 10.0 mi West 5.8 mph - N/A   Clear
4:35 AM 17.6 °F - 15.8 °F 93% 30.11 in 10.0 mi Calm Calm - N/A   Clear
4:55 AM 19.4 °F - 17.6 °F 93% 30.11 in 10.0 mi Calm Calm - N/A   Clear
5:15 AM 17.6 °F 9.3 °F 15.8 °F 93% 30.11 in 10.0 mi WNW 5.8 mph - N/A   Clear
5:35 AM 17.6 °F 9.3 °F 15.8 °F 93% 30.11 in 10.0 mi NW 5.8 mph - N/A   Clear
5:55 AM 17.6 °F 10.7 °F 14.0 °F 86% 30.11 in 10.0 mi WNW 4.6 mph - N/A   Clear
6:15 AM 17.6 °F 9.3 °F 14.0 °F 86% 30.12 in 10.0 mi NW 5.8 mph - N/A   Clear
6:35 AM 17.6 °F 9.3 °F 14.0 °F 86% 30.12 in 10.0 mi NW 5.8 mph - N/A   Clear
6:55 AM 17.6 °F 9.3 °F 14.0 °F 86% 30.11 in 10.0 mi WNW 5.8 mph - N/A   Scattered Clouds
7:15 AM 17.6 °F 10.7 °F 15.8 °F 93% 30.11 in 10.0 mi WNW 4.6 mph - N/A   Scattered Clouds
7:35 AM 21.2 °F 14.9 °F 17.6 °F 86% 30.11 in 10.0 mi West 4.6 mph - N/A   Clear
7:55 AM 23.0 °F 15.8 °F 19.4 °F 86% 30.11 in 10.0 mi West 5.8 mph - N/A   Clear
8:15 AM 26.6 °F 22.6 °F 19.4 °F 74% 30.11 in 10.0 mi West 3.5 mph - N/A   Clear
8:35 AM 30.2 °F 26.7 °F 17.6 °F 60% 30.11 in 10.0 mi NW 3.5 mph - N/A   Clear
8:55 AM 32.0 °F - 15.8 °F 51% 30.11 in 10.0 mi Calm Calm - N/A   Clear
9:15 AM 33.8 °F - 14.0 °F 44% 30.10 in 10.0 mi Calm Calm - N/A   Clear
9:35 AM 37.4 °F - 14.0 °F 38% 30.09 in 10.0 mi Calm Calm - N/A   Clear
9:55 AM 39.2 °F - 14.0 °F 36% 30.09 in 10.0 mi Calm Calm - N/A   Clear
10:15 AM 41.0 °F - 12.2 °F 31% 30.09 in 10.0 mi Calm Calm - N/A   Clear
10:35 AM 42.8 °F - 10.4 °F 27% 30.08 in 10.0 mi Calm Calm - N/A   Clear
10:55 AM 42.8 °F 40.1 °F 10.4 °F 27% 30.08 in 10.0 mi North 4.6 mph - N/A   Clear
11:15 AM 42.8 °F 39.3 °F 10.4 °F 27% 30.08 in 10.0 mi NNW 5.8 mph - N/A   Clear
11:35 AM 44.6 °F 38.8 °F 12.2 °F 27% 30.08 in 10.0 mi WNW 11.5 mph - N/A   Clear
11:55 AM 44.6 °F 39.7 °F 8.6 °F 23% 30.07 in 10.0 mi NW 9.2 mph - N/A   Clear
12:15 PM 44.6 °F 39.2 °F 12.2 °F 27% 30.06 in 10.0 mi NW 10.4 mph - N/A   Clear
12:35 PM 44.6 °F 40.7 °F 10.4 °F 25% 30.06 in 10.0 mi WNW 6.9 mph 17.3 mph N/A   Clear
12:55 PM 46.4 °F 43.5 °F 10.4 °F 23% 30.05 in 10.0 mi NW 5.8 mph 9.2 mph N/A   Clear
1:15 PM 46.4 °F 41.5 °F 12.2 °F 25% 30.04 in 10.0 mi WNW 10.4 mph - N/A   Clear
1:35 PM 46.4 °F 42.4 °F 10.4 °F 23% 30.04 in 10.0 mi WNW 8.1 mph - N/A   Clear
1:55 PM 46.4 °F 42.4 °F 12.2 °F 25% 30.03 in 10.0 mi WNW 8.1 mph - N/A   Clear
2:15 PM 46.4 °F 42.9 °F 10.4 °F 23% 30.03 in 10.0 mi West 6.9 mph - N/A   Clear
2:35 PM 46.4 °F 42.4 °F 10.4 °F 23% 30.03 in 10.0 mi WNW 8.1 mph - N/A   Clear
2:55 PM 48.2 °F - 12.2 °F 24% 30.02 in 10.0 mi West 6.9 mph - N/A   Clear
3:15 PM 48.2 °F - 10.4 °F 22% 30.01 in 10.0 mi Calm Calm - N/A   Clear
3:35 PM 51.8 °F - 8.6 °F 18% 30.01 in 10.0 mi NW 13.8 mph 21.9 mph N/A   Clear
3:55 PM 51.8 °F - 8.6 °F 18% 30.00 in 10.0 mi WNW 17.3 mph 23.0 mph N/A   Clear
4:15 PM 51.8 °F - 8.6 °F 18% 30.00 in 10.0 mi WNW 17.3 mph 21.9 mph N/A   Clear
4:35 PM 51.8 °F - 8.6 °F 18% 30.00 in 10.0 mi WNW 19.6 mph 26.5 mph N/A   Clear
4:55 PM 51.8 °F - 8.6 °F 18% 30.00 in 10.0 mi West 15.0 mph 25.3 mph N/A   Clear
5:15 PM 51.8 °F - 8.6 °F 18% 30.00 in 10.0 mi West 16.1 mph 24.2 mph N/A   Clear
5:35 PM 50.0 °F - 8.6 °F 19% 30.01 in 10.0 mi WNW 12.7 mph 25.3 mph N/A   Clear
5:55 PM 50.0 °F - 8.6 °F 19% 30.01 in 10.0 mi WNW 20.7 mph 27.6 mph N/A   Clear
6:15 PM 50.0 °F - 10.4 °F 20% 30.02 in 10.0 mi WNW 18.4 mph 26.5 mph N/A   Clear
6:35 PM 50.0 °F - 10.4 °F 20% 30.03 in 10.0 mi West 15.0 mph 25.3 mph N/A   Clear
6:55 PM 50.0 °F - 10.4 °F 20% 30.03 in 10.0 mi West 16.1 mph 21.9 mph N/A   Clear
7:15 PM 48.2 °F - 12.2 °F 24% 30.03 in 10.0 mi WNW 10.4 mph - N/A   Clear
7:35 PM 46.4 °F 41.9 °F 12.2 °F 25% 30.04 in 10.0 mi West 9.2 mph - N/A   Clear
7:55 PM 44.6 °F 39.2 °F 14.0 °F 29% 30.05 in 10.0 mi West 10.4 mph - N/A   Clear
8:15 PM 41.0 °F 35.8 °F 15.8 °F 36% 30.05 in 10.0 mi West 8.1 mph - N/A   Clear
8:35 PM 39.2 °F 33.6 °F 14.0 °F 36% 30.07 in 10.0 mi West 8.1 mph - N/A   Clear
8:55 PM 37.4 °F 32.1 °F 15.8 °F 41% 30.08 in 10.0 mi WNW 6.9 mph - N/A   Scattered Clouds
9:15 PM 32.0 °F 25.6 °F 17.6 °F 55% 30.09 in 10.0 mi NW 6.9 mph - N/A   Scattered Clouds
9:35 PM 32.0 °F 24.2 °F 17.6 °F 55% 30.11 in 10.0 mi NW 9.2 mph - N/A   Clear
9:55 PM 32.0 °F 24.2 °F 17.6 °F 55% 30.11 in 10.0 mi WNW 9.2 mph - N/A   Clear
10:15 PM 30.2 °F 23.4 °F 17.6 °F 60% 30.13 in 10.0 mi West 6.9 mph - N/A   Scattered Clouds
10:35 PM 30.2 °F 24.3 °F 17.6 °F 60% 30.13 in 10.0 mi West 5.8 mph - N/A   Scattered Clouds
10:55 PM 28.4 °F 23.3 °F 19.4 °F 69% 30.13 in 10.0 mi NW 4.6 mph - N/A   Scattered Clouds
11:15 PM 30.2 °F 24.3 °F 17.6 °F 60% 30.13 in 10.0 mi NNW 5.8 mph - N/A   Clear
11:35 PM 30.2 °F 24.3 °F 17.6 °F 60% 30.14 in 10.0 mi NW 5.8 mph - N/A   Clear
11:55 PM 28.4 °F 19.7 °F 17.6 °F 64% 30.14 in 10.0 mi West 9.2 mph - N/A   Clear